This demonstration page uses our WeatherBlox Daily Observations layout. Learn more.

Left ArrowRight Arrow

Hourly Observations for April 17, 2020

Temp ( °F °C ) Dew Point ( °F °C ) Humidity (%) Winds ( mph kmh ) Pressure ( in mb ) Visibility ( mi km ) Precip ( " mm )
12:16 am 00:16 Cloudy with Light Snow 31 -0.6 30 -1.1 96 96 N 10 17 30.28 1025 3 5 0.00 0.00
12:52 am 00:52 Cloudy with Light Snow 31 -0.6 30 -1.1 96 96 N 9 15 30.25 1024 3 4 0.00 0.00
1:19 am 01:19 Cloudy with Light Snow 32 0 31 -0.6 96 96 N 10 17 30.25 1024 2 3 0.00 0.00
1:28 am 01:28 Cloudy with Light Snow 32 0 31 -0.6 96 96 N 9 15 30.26 1025 2 3 0.00 0.00
1:52 am 01:52 Cloudy with Light Snow 31 -0.6 30 -1.1 96 96 N 9 15 30.23 1024 3 5 0.01 0.25
2:36 am 02:36 Cloudy with Light Snow 31 -0.6 30 -1.1 96 96 N 8 13 30.27 1025 3 5 0.00 0.00
2:52 am 02:52 Cloudy with Light Snow 31 -0.6 30 -1.1 96 96 N 8 13 30.22 1023 3 5 0.00 0.00
3:52 am 03:52 Cloudy with Light Snow 31 -0.6 30 -1.1 96 96 N 8 13 30.22 1023 5 8 0.00 0.00
4:52 am 04:52 Cloudy with Mist and Fog 30 -1.1 29 -1.7 96 96 N 6 9 30.20 1023 6 10 0.00 0.00
5:52 am 05:52 Cloudy 30 -1.1 29 -1.7 96 96 NW 8 13 30.21 1023 7 11 0.00 0.00
6:44 am 06:44 Cloudy with Mist and Fog 29 -1.7 28 -2.2 96 96 NW 6 9 30.25 1024 4 6 0.00 0.00
6:52 am 06:52 Cloudy with Mist and Fog 29 -1.7 28 -2.2 96 96 NW 5 7 30.23 1024 3 5 0.00 0.00
7:52 am 07:52 Partly Cloudy with Mist and Fog 27 -2.8 26 -3.3 96 96 WNW 5 7 30.24 1024 4 6 0.00 0.00
8:52 am 08:52 Sunny with Mist and Fog 32 0 29 -1.7 88 88 Calm 30.23 1024 6 10 0.00 0.00
9:52 am 09:52 Sunny 35 1.7 30 -1.1 82 82 Calm 30.22 1024 7 11 0.00 0.00
10:52 am 10:52 Sunny 38 3.3 30 -1.1 73 73 Calm 30.22 1023 10 16 0.00 0.00
11:52 am 11:52 Sunny 40 4.4 28 -2.2 63 63 W 6 9 30.21 1023 10 16 0.00 0.00
12:52 pm 12:52 Mostly Sunny 41 5 27 -2.8 57 57 WSW 8 13 30.19 1022 10 16 0.00 0.00
1:52 pm 13:52 Mostly Sunny 43 6.1 29 -1.7 58 58 SW 10 17 30.17 1022 10 16 0.00 0.00
2:52 pm 14:52 Mostly Sunny 45 7.2 29 -1.7 54 54 SSW 13 20 30.15 1021 10 16 0.00 0.00
3:52 pm 15:52 Mostly Sunny 47 8.3 27 -2.8 46 46 SW 14 22 30.12 1020 10 16 0.00 0.00
4:52 pm 16:52 Mostly Sunny 48 8.9 27 -2.8 44 44 SW 17 28 30.10 1019 10 16 0.00 0.00
5:52 pm 17:52 Mostly Sunny 49 9.4 27 -2.8 43 43 WSW 16 26 30.09 1019 10 16 0.00 0.00
6:52 pm 18:52 Mostly Sunny 48 8.9 25 -3.9 41 41 WSW 13 20 30.08 1019 10 16 0.00 0.00
7:52 pm 19:52 Mostly Sunny 46 7.8 26 -3.3 46 46 SW 12 19 30.07 1018 10 16 0.00 0.00
8:52 pm 20:52 Mostly Clear 45 7.2 26 -3.3 48 48 SW 9 15 30.06 1018 10 16 0.00 0.00
9:52 pm 21:52 Clear 44 6.7 25 -3.9 47 47 SSW 8 13 30.06 1018 10 16 0.00 0.00
10:52 pm 22:52 Clear 37 2.8 26 -3.3 65 65 SE 7 11 30.06 1018 10 16 0.00 0.00
11:52 pm 23:52 Clear 36 2.2 26 -3.3 67 67 SSE 9 15 30.04 1017 10 16 0.00 0.00

Powered by AerisWeather